ATLAS 5 CENTAUR DEB, 52972

Orbit data source: Space-Track

ATLAS 5 CENTAUR DEB, 52972 is space debris in HEO originally from a launch on Wed, 17 Oct 2018 UTC launched from the Air Force Eastern Test Range (AFETR). Debris objects in space refer to the collection of defunct objects orbiting the Earth. Examples of debris include non-operational satellites, rocket bodies, and fragments generated from explosions, collisions, or faulty payload assembly.

Loading next visibility...
Identifier
52972, 2018-079GW
Orbit
HEO
Country
Flag of USUS
Related business
Flag of USUnited Launch Alliance/Lockheed Martin (US)
Manufacturer
ULA Decatur
Mission
Spacecraft
Bus & Motor
Unknown
Mass
Unknown
Launch date (UTC)
2018-10-17 (8 years ago)
Launch vehicle
Unknown
Launch site
Air Force Eastern Test Range (AFETR)
Object type
Payload
Rocket body
Debris
Shape & HBR
Unknown shape, 1.1 m
Radar Cross Section
RCS unknown

Expand to show TLE details & history
Last TLE update: 20 hours ago

TLE from 20 hours ago
0 ATLAS 5 CENTAUR DEB
1 52972U 18079GW  26126.02021713 -.00000142  00000-0  00000-0 0  9991
2 52972  13.1831  21.0483 4486706 351.1991   3.1103  1.93885349 33583
Epoch: 2026-05-06T00:29Z
TLE epoch observation values (Epoch: 2026-05-06T00:29:06.760Z)
Latitude
-0.00006°
Longitude
149.85766°
Altitude
8,644.336 km
Speed
6.196 km/s
True Right ascension
01h 24m 05s
True Declination
0° 00' 00"
Sunlit
Object was in daylight at epoch
Visualization orbit readout
Latitude
Unknown
Longitude
Unknown
Altitude
Unknown
Speed
Unknown
Apparent Right ascension
Unknown
Apparent Declination
Unknown
Sunlit
N/A
Visualization observer readout
Local Sidereal Time
04:29:19
Azimuth
Unknown
Elevation
Unknown
Doppler factor
Unknown
Orbital elements
Apogee altitude
32,980.668 km
Perigee altitude
8,600.883 km
Semi-major axis
27,168.912 km
Eccentricity
0.44867
Inclination
13.1831°
RAAN
21.0483°
Arg. of periapsis
351.1991°
True anomaly
9.1208°
Mean anomaly
3.1103°
Eccentric anomaly
5.63407°
Mean motion
0.48466 °/min
Orbital period
742.79 mins
BSTAR
0
Loading maneuver chart data...
Computing Atmospheric mass density...

Documentation

Showing up to 5 results
|